Time,TemperatureF,DewpointF,PressureIn,WindDirection,WindDirectionDegrees,WindSpeedMPH,WindSpeedGustMPH,Humidity,HourlyPrecipIn,Conditions,Clouds,dailyrainin,SoftwareType,DateUTC
2013-02-18 00:02:00,31.0,22.0,-100.00,SSE,150,12.0,-999.0,67,0.00,,,-99.99,,2013-02-18 06:02:00,
2013-02-18 00:11:00,31.0,22.0,-100.00,SE,145,14.0,21.0,67,0.00,,,-99.99,,2013-02-18 06:11:00,
2013-02-18 00:21:00,31.0,22.0,-100.00,SE,145,13.0,20.0,67,0.00,,,-99.99,,2013-02-18 06:21:00,
2013-02-18 00:32:00,31.0,22.0,-100.00,SSE,150,16.0,24.0,67,0.00,,,-99.99,,2013-02-18 06:32:00,
2013-02-18 00:41:00,31.0,22.0,-100.00,SE,145,15.0,22.0,67,0.00,,,-99.99,,2013-02-18 06:41:00,
2013-02-18 00:51:00,31.0,22.0,-100.00,SE,145,14.0,22.0,68,0.00,,,-99.99,,2013-02-18 06:51:00,
2013-02-18 01:01:00,32.0,22.0,-100.00,SSE,150,14.0,22.0,68,0.00,,,-99.99,,2013-02-18 07:01:00,
2013-02-18 01:11:00,31.0,22.0,-100.00,SSE,150,13.0,21.0,68,0.00,,,-99.99,,2013-02-18 07:11:00,
2013-02-18 01:21:00,31.0,22.0,-100.00,SE,145,14.0,21.0,68,0.00,,,-99.99,,2013-02-18 07:21:00,
2013-02-18 01:32:00,31.0,23.0,-100.00,SSE,150,15.0,23.0,69,0.00,,,-99.99,,2013-02-18 07:32:00,
2013-02-18 01:42:00,31.0,23.0,-100.00,SE,140,14.0,21.0,69,0.00,,,-99.99,,2013-02-18 07:42:00,
2013-02-18 01:51:00,31.0,23.0,-100.00,SSE,155,13.0,21.0,69,0.00,,,-99.99,,2013-02-18 07:51:00,
2013-02-18 02:01:00,31.0,23.0,-100.00,SE,145,14.0,22.0,70,0.00,,,-99.99,,2013-02-18 08:01:00,
2013-02-18 02:11:00,31.0,23.0,-100.00,SSE,150,12.0,20.0,71,0.00,,,-99.99,,2013-02-18 08:11:00,
2013-02-18 02:21:00,31.0,23.0,-100.00,SSE,150,13.0,21.0,71,0.00,,,-99.99,,2013-02-18 08:21:00,
2013-02-18 02:32:00,31.0,23.0,-100.00,SE,145,13.0,19.0,71,0.00,,,-99.99,,2013-02-18 08:32:00,
2013-02-18 02:42:00,31.0,23.0,-100.00,SSE,150,13.0,22.0,72,0.00,,,-99.99,,2013-02-18 08:42:00,
2013-02-18 02:52:00,31.0,23.0,-100.00,SE,145,13.0,18.0,72,0.00,,,-99.99,,2013-02-18 08:52:00,
2013-02-18 03:02:00,31.0,24.0,-100.00,SE,145,12.0,17.0,73,0.00,,,-99.99,,2013-02-18 09:02:00,
2013-02-18 03:11:00,31.0,23.0,-100.00,SSE,150,8.0,16.0,74,0.00,,,-99.99,,2013-02-18 09:11:00,
2013-02-18 03:22:00,31.0,24.0,-100.00,SE,145,11.0,14.0,74,0.00,,,-99.99,,2013-02-18 09:22:00,
2013-02-18 03:32:00,30.0,24.0,-100.00,SE,145,7.0,12.0,76,0.00,,,-99.99,,2013-02-18 09:32:00,
2013-02-18 03:42:00,30.0,24.0,-100.00,SSE,150,7.0,14.0,77,0.00,,,-99.99,,2013-02-18 09:42:00,
2013-02-18 03:51:00,30.0,24.0,-100.00,SSE,150,8.0,12.0,77,0.00,,,-99.99,,2013-02-18 09:51:00,
2013-02-18 04:01:00,29.0,24.0,-100.00,SE,145,4.0,9.0,79,0.00,,,-99.99,,2013-02-18 10:01:00,
2013-02-18 04:11:00,29.0,24.0,-100.00,SSE,155,5.0,9.0,80,0.00,,,-99.99,,2013-02-18 10:11:00,
2013-02-18 04:21:00,29.0,24.0,-100.00,SE,145,6.0,9.0,81,0.00,,,-99.99,,2013-02-18 10:21:00,
2013-02-18 04:31:00,29.0,24.0,-100.00,SSE,150,7.0,11.0,82,0.00,,,-99.99,,2013-02-18 10:31:00,
2013-02-18 04:42:00,29.0,25.0,-100.00,SE,145,9.0,11.0,82,0.00,,,-99.99,,2013-02-18 10:42:00,
2013-02-18 04:52:00,29.0,25.0,-100.00,SSE,150,7.0,12.0,82,0.00,,,-99.99,,2013-02-18 10:52:00,
2013-02-18 05:01:00,30.0,25.0,-100.00,SE,145,10.0,13.0,82,0.00,,,-99.99,,2013-02-18 11:01:00,
2013-02-18 05:11:00,30.0,25.0,-100.00,SE,140,8.0,12.0,82,0.00,,,-99.99,,2013-02-18 11:11:00,
2013-02-18 05:22:00,30.0,25.0,-100.00,SE,145,9.0,14.0,82,0.00,,,-99.99,,2013-02-18 11:22:00,
2013-02-18 05:32:00,29.0,25.0,-100.00,SSE,150,7.0,11.0,82,0.00,,,-99.99,,2013-02-18 11:32:00,
2013-02-18 05:42:00,30.0,25.0,-100.00,SE,145,7.0,11.0,83,0.00,,,-99.99,,2013-02-18 11:42:00,
2013-02-18 05:52:00,29.0,25.0,-100.00,SE,145,10.0,12.0,84,0.00,,,-99.99,,2013-02-18 11:52:00,
2013-02-18 06:02:00,29.0,25.0,-100.00,SE,145,9.0,13.0,84,0.00,,,-99.99,,2013-02-18 12:02:00,
2013-02-18 06:11:00,29.0,25.0,-100.00,SSE,155,7.0,10.0,85,0.00,,,-99.99,,2013-02-18 12:11:00,
2013-02-18 06:22:00,29.0,25.0,-100.00,SSE,150,6.0,10.0,86,0.00,,,-99.99,,2013-02-18 12:22:00,
2013-02-18 06:32:00,29.0,25.0,-100.00,SSE,160,6.0,10.0,86,0.00,,,-99.99,,2013-02-18 12:32:00,
2013-02-18 06:42:00,28.0,25.0,-100.00,SSE,165,6.0,10.0,86,0.00,,,-99.99,,2013-02-18 12:42:00,
2013-02-18 06:52:00,28.0,25.0,-100.00,SSE,160,6.0,9.0,87,0.00,,,-99.99,,2013-02-18 12:52:00,
2013-02-18 07:02:00,28.0,25.0,-100.00,South,170,4.0,8.0,87,0.00,,,-99.99,,2013-02-18 13:02:00,
2013-02-18 07:12:00,27.0,24.0,-100.00,South,170,2.0,5.0,88,0.00,,,-99.99,,2013-02-18 13:12:00,
2013-02-18 07:22:00,27.0,25.0,-100.00,SSE,160,3.0,4.0,89,0.00,,,-99.99,,2013-02-18 13:22:00,
2013-02-18 07:32:00,28.0,25.0,-100.00,SE,145,3.0,6.0,89,0.00,,,-99.99,,2013-02-18 13:32:00,
2013-02-18 07:42:00,28.0,25.0,-100.00,ESE,110,1.0,4.0,89,0.00,,,-99.99,,2013-02-18 13:42:00,
2013-02-18 07:52:00,27.0,25.0,-100.00,SE,135,3.0,4.0,89,0.00,,,-99.99,,2013-02-18 13:52:00,
2013-02-18 08:02:00,27.0,25.0,-100.00,SE,140,4.0,4.0,90,0.00,,,-99.99,,2013-02-18 14:02:00,
2013-02-18 08:11:00,28.0,26.0,-100.00,SE,135,4.0,5.0,90,0.00,,,-99.99,,2013-02-18 14:11:00,
2013-02-18 08:22:00,28.0,26.0,-100.00,SE,145,3.0,5.0,90,0.00,,,-99.99,,2013-02-18 14:22:00,
2013-02-18 08:33:00,28.0,26.0,-100.00,SSE,155,4.0,6.0,90,0.00,,,-99.99,,2013-02-18 14:33:00,
2013-02-18 08:42:00,29.0,27.0,-100.00,South,175,4.0,8.0,90,0.00,,,-99.99,,2013-02-18 14:42:00,
2013-02-18 08:53:00,31.0,28.0,-100.00,South,185,4.0,6.0,89,0.00,,,-99.99,,2013-02-18 14:53:00,
2013-02-18 09:02:00,32.0,28.0,-100.00,SW,215,3.0,8.0,87,0.00,,,-99.99,,2013-02-18 15:02:00,
2013-02-18 09:11:00,33.0,29.0,-100.00,SSW,195,3.0,4.0,85,0.00,,,-99.99,,2013-02-18 15:11:00,
2013-02-18 09:22:00,33.0,28.0,-100.00,SW,225,4.0,6.0,82,0.00,,,-99.99,,2013-02-18 15:22:00,
2013-02-18 09:32:00,34.0,29.0,-100.00,SW,230,4.0,7.0,80,0.00,,,-99.99,,2013-02-18 15:32:00,
2013-02-18 09:42:00,35.0,29.0,-100.00,West,265,6.0,7.0,77,0.00,,,-99.99,,2013-02-18 15:42:00,
2013-02-18 09:52:00,35.0,29.0,-100.00,West,260,5.0,7.0,76,0.00,,,-99.99,,2013-02-18 15:52:00,
2013-02-18 10:02:00,37.0,29.0,-100.00,WNW,290,6.0,7.0,73,0.00,,,-99.99,,2013-02-18 16:02:00,
2013-02-18 10:12:00,37.0,29.0,-100.00,WNW,285,6.0,9.0,71,0.00,,,-99.99,,2013-02-18 16:12:00,
2013-02-18 10:22:00,38.0,29.0,-100.00,WNW,295,7.0,9.0,69,0.00,,,-99.99,,2013-02-18 16:22:00,
2013-02-18 10:32:00,38.0,29.0,-100.00,NW,310,9.0,12.0,69,0.00,,,-99.99,,2013-02-18 16:32:00,
2013-02-18 10:42:00,38.0,29.0,-100.00,NW,315,11.0,13.0,67,0.00,,,-99.99,,2013-02-18 16:42:00,
2013-02-18 10:52:00,38.0,28.0,-100.00,NW,310,9.0,14.0,67,0.00,,,-99.99,,2013-02-18 16:52:00,
2013-02-18 11:03:00,38.0,28.0,-100.00,NW,315,11.0,13.0,67,0.00,,,-99.99,,2013-02-18 17:03:00,
2013-02-18 11:12:00,38.0,29.0,-100.00,NW,325,11.0,14.0,69,0.00,,,-99.99,,2013-02-18 17:12:00,
2013-02-18 11:22:00,38.0,29.0,-100.00,NW,320,15.0,21.0,71,0.00,,,-99.99,,2013-02-18 17:22:00,
2013-02-18 11:32:00,38.0,30.0,-100.00,NW,315,12.0,16.0,72,0.00,,,-99.99,,2013-02-18 17:32:00,
2013-02-18 11:42:00,39.0,31.0,-100.00,NW,320,13.0,16.0,72,0.00,,,-99.99,,2013-02-18 17:42:00,
2013-02-18 11:52:00,39.0,31.0,-100.00,NW,315,12.0,17.0,73,0.00,,,-99.99,,2013-02-18 17:52:00,
2013-02-18 12:02:00,38.0,31.0,-100.00,NW,325,14.0,18.0,74,0.00,,,-99.99,,2013-02-18 18:02:00,
2013-02-18 12:12:00,38.0,31.0,-100.00,NW,325,11.0,18.0,75,0.00,,,-99.99,,2013-02-18 18:12:00,
2013-02-18 12:22:00,38.0,31.0,-100.00,NW,315,12.0,19.0,76,0.00,,,-99.99,,2013-02-18 18:22:00,
2013-02-18 12:32:00,37.0,31.0,-100.00,NW,325,16.0,20.0,79,0.00,,,-99.99,,2013-02-18 18:32:00,
2013-02-18 12:42:00,36.0,31.0,-100.00,NW,320,11.0,20.0,81,0.00,,,-99.99,,2013-02-18 18:42:00,
2013-02-18 12:52:00,36.0,31.0,-100.00,NW,320,11.0,20.0,81,0.00,,,-99.99,,2013-02-18 18:52:00,
2013-02-18 13:02:00,35.0,31.0,-100.00,NW,310,13.0,20.0,85,0.00,,,-99.99,,2013-02-18 19:02:00,
2013-02-18 13:12:00,35.0,32.0,-100.00,NW,320,13.0,24.0,87,0.00,,,-99.99,,2013-02-18 19:12:00,
2013-02-18 13:22:00,35.0,32.0,-100.00,NW,310,19.0,27.0,88,0.00,,,-99.99,,2013-02-18 19:22:00,
2013-02-18 13:33:00,33.0,31.0,-100.00,WNW,300,20.0,26.0,90,0.00,,,-99.99,,2013-02-18 19:33:00,
2013-02-18 13:42:00,32.0,30.0,-100.00,NW,310,20.0,24.0,91,0.00,,,-99.99,,2013-02-18 19:42:00,
2013-02-18 13:52:00,31.0,29.0,-100.00,WNW,295,16.0,21.0,91,0.00,,,-99.99,,2013-02-18 19:52:00,
2013-02-18 14:02:00,30.0,28.0,-100.00,WNW,290,17.0,26.0,91,0.00,,,-99.99,,2013-02-18 20:02:00,
2013-02-18 14:12:00,30.0,28.0,-100.00,NW,305,21.0,24.0,90,0.00,,,-99.99,,2013-02-18 20:12:00,
2013-02-18 14:22:00,30.0,27.0,-100.00,NW,305,19.0,27.0,88,0.00,,,-99.99,,2013-02-18 20:22:00,
2013-02-18 14:33:00,30.0,26.0,-100.00,NW,305,23.0,30.0,86,0.00,,,-99.99,,2013-02-18 20:33:00,
2013-02-18 14:42:00,30.0,25.0,-100.00,NW,310,23.0,30.0,83,0.00,,,-99.99,,2013-02-18 20:42:00,
2013-02-18 14:52:00,29.0,25.0,-100.00,NW,305,21.0,27.0,82,0.00,,,-99.99,,2013-02-18 20:52:00,
2013-02-18 15:03:00,29.0,24.0,-100.00,NW,305,22.0,30.0,82,0.25,,,-99.99,,2013-02-18 21:03:00,
2013-02-18 15:12:00,28.0,24.0,-100.00,NW,305,22.0,26.0,86,0.24,,,-99.99,,2013-02-18 21:12:00,
2013-02-18 15:22:00,28.0,24.0,-100.00,NW,305,22.0,26.0,86,0.24,,,-99.99,,2013-02-18 21:22:00,
2013-02-18 15:32:00,27.0,23.0,-100.00,NW,305,26.0,30.0,86,0.01,,,-99.99,,2013-02-18 21:32:00,
2013-02-18 15:42:00,26.0,23.0,-100.00,NW,305,22.0,30.0,86,0.03,,,-99.99,,2013-02-18 21:42:00,
2013-02-18 15:52:00,26.0,22.0,-100.00,NW,310,27.0,32.0,86,0.01,,,-99.99,,2013-02-18 21:52:00,
2013-02-18 16:02:00,26.0,22.0,-100.00,NW,310,19.0,27.0,86,0.01,,,-99.99,,2013-02-18 22:02:00,
2013-02-18 16:12:00,25.0,22.0,-100.00,NW,310,21.0,32.0,85,0.01,,,-99.99,,2013-02-18 22:12:00,
2013-02-18 16:22:00,25.0,22.0,-100.00,NW,310,21.0,32.0,85,0.01,,,-99.99,,2013-02-18 22:22:00,
2013-02-18 16:33:00,24.0,20.0,-100.00,NW,315,27.0,33.0,84,0.00,,,-99.99,,2013-02-18 22:33:00,
2013-02-18 16:43:00,24.0,20.0,-100.00,NW,310,30.0,36.0,81,0.00,,,-99.99,,2013-02-18 22:43:00,
2013-02-18 16:52:00,23.0,18.0,-100.00,NW,310,31.0,37.0,79,0.00,,,-99.99,,2013-02-18 22:52:00,
2013-02-18 17:02:00,22.0,17.0,-100.00,NW,315,26.0,35.0,79,0.00,,,-99.99,,2013-02-18 23:02:00,
2013-02-18 17:12:00,22.0,17.0,-100.00,NW,310,27.0,32.0,79,0.00,,,-99.99,,2013-02-18 23:12:00,
2013-02-18 17:22:00,22.0,17.0,-100.00,NW,305,26.0,33.0,79,0.00,,,-99.99,,2013-02-18 23:22:00,
2013-02-18 17:33:00,21.0,16.0,-100.00,WNW,300,28.0,34.0,79,0.00,,,-99.99,,2013-02-18 23:33:00,
2013-02-18 17:42:00,21.0,15.0,-100.00,NW,315,23.0,37.0,78,0.00,,,-99.99,,2013-02-18 23:42:00,
2013-02-18 17:52:00,20.0,14.0,-100.00,NW,310,28.0,36.0,77,0.00,,,-99.99,,2013-02-18 23:52:00,
2013-02-18 18:02:00,20.0,13.0,-100.00,NW,315,26.0,35.0,76,0.00,,,-99.99,,2013-02-19 00:02:00,
2013-02-18 18:12:00,20.0,14.0,-100.00,NW,310,27.0,30.0,76,0.00,,,-99.99,,2013-02-19 00:12:00,
2013-02-18 18:22:00,19.0,13.0,-100.00,NW,305,21.0,30.0,77,0.00,,,-99.99,,2013-02-19 00:22:00,
2013-02-18 18:34:00,18.0,13.0,-100.00,NW,305,24.0,28.0,78,0.00,,,-99.99,,2013-02-19 00:34:00,
2013-02-18 18:43:00,18.0,12.0,-100.00,NW,315,26.0,34.0,77,0.00,,,-99.99,,2013-02-19 00:43:00,
2013-02-18 18:53:00,17.0,11.0,-100.00,WNW,300,25.0,32.0,76,0.00,,,-99.99,,2013-02-19 00:53:00,
2013-02-18 19:03:00,17.0,11.0,-100.00,NW,305,23.0,33.0,76,0.00,,,-99.99,,2013-02-19 01:03:00,
2013-02-18 19:14:00,16.0,10.0,-100.00,NW,315,27.0,37.0,75,0.00,,,-99.99,,2013-02-19 01:14:00,
2013-02-18 19:23:00,16.0,10.0,-100.00,NW,310,21.0,30.0,75,0.00,,,-99.99,,2013-02-19 01:23:00,
2013-02-18 19:34:00,15.0,9.0,-100.00,NW,305,28.0,38.0,75,0.00,,,-99.99,,2013-02-19 01:34:00,
2013-02-18 19:43:00,15.0,8.0,-100.00,NW,305,25.0,37.0,74,0.00,,,-99.99,,2013-02-19 01:43:00,
2013-02-18 19:53:00,14.0,8.0,-100.00,NW,305,22.0,35.0,74,0.00,,,-99.99,,2013-02-19 01:53:00,
2013-02-18 20:03:00,14.0,7.0,-100.00,NW,305,30.0,37.0,73,0.00,,,-99.99,,2013-02-19 02:03:00,
2013-02-18 20:13:00,13.0,7.0,-100.00,WNW,300,27.0,37.0,73,0.00,,,-99.99,,2013-02-19 02:13:00,
2013-02-18 20:22:00,13.0,7.0,-100.00,NW,310,23.0,34.0,73,0.00,,,-99.99,,2013-02-19 02:22:00,
2013-02-18 20:34:00,13.0,6.0,-100.00,NW,305,24.0,37.0,73,0.00,,,-99.99,,2013-02-19 02:34:00,
2013-02-18 20:42:00,13.0,6.0,-100.00,NW,310,24.0,32.0,73,0.00,,,-99.99,,2013-02-19 02:42:00,
2013-02-18 20:53:00,12.0,6.0,-100.00,WNW,295,27.0,32.0,75,0.01,,,-99.99,,2013-02-19 02:53:00,
2013-02-18 21:06:00,12.0,6.0,-100.00,NW,305,24.0,33.0,76,0.00,,,-99.99,,2013-02-19 03:06:00,
2013-02-18 21:14:00,11.0,5.0,-100.00,WNW,300,28.0,36.0,74,0.00,,,-99.99,,2013-02-19 03:14:00,
2013-02-18 21:23:00,11.0,5.0,-100.00,WNW,300,26.0,34.0,74,0.00,,,-99.99,,2013-02-19 03:23:00,
2013-02-18 21:33:00,11.0,5.0,-100.00,WNW,300,24.0,34.0,74,0.00,,,-99.99,,2013-02-19 03:33:00,
2013-02-18 21:44:00,11.0,4.0,-100.00,NW,305,29.0,35.0,74,0.00,,,-99.99,,2013-02-19 03:44:00,
2013-02-18 21:52:00,10.0,4.0,-100.00,NW,310,24.0,34.0,74,0.00,,,-99.99,,2013-02-19 03:52:00,
2013-02-18 22:02:00,10.0,3.0,-100.00,NW,320,28.0,35.0,74,0.00,,,-99.99,,2013-02-19 04:02:00,
2013-02-18 22:14:00,10.0,3.0,-100.00,WNW,300,24.0,36.0,73,0.00,,,-99.99,,2013-02-19 04:14:00,
2013-02-18 22:22:00,10.0,4.0,-100.00,WNW,300,23.0,30.0,74,0.00,,,-99.99,,2013-02-19 04:22:00,
2013-02-18 22:33:00,9.0,3.0,-100.00,NW,305,30.0,35.0,73,0.00,,,-99.99,,2013-02-19 04:33:00,
2013-02-18 22:43:00,9.0,2.0,-100.00,NW,305,21.0,36.0,72,0.00,,,-99.99,,2013-02-19 04:43:00,
2013-02-18 22:52:00,9.0,3.0,-100.00,WNW,300,23.0,30.0,74,0.00,,,-99.99,,2013-02-19 04:52:00,
2013-02-18 23:02:00,8.0,2.0,-100.00,WNW,300,26.0,34.0,74,0.00,,,-99.99,,2013-02-19 05:02:00,
2013-02-18 23:12:00,8.0,2.0,-100.00,NW,310,24.0,28.0,74,0.00,,,-99.99,,2013-02-19 05:12:00,
2013-02-18 23:22:00,8.0,2.0,-100.00,NW,305,26.0,35.0,74,0.00,,,-99.99,,2013-02-19 05:22:00,
2013-02-18 23:32:00,8.0,1.0,-100.00,NW,305,26.0,33.0,74,0.01,,,-99.99,,2013-02-19 05:32:00,
2013-02-18 23:43:00,8.0,1.0,-100.00,NW,305,26.0,33.0,74,0.01,,,-99.99,,2013-02-19 05:43:00,
2013-02-18 23:52:00,8.0,1.0,-100.00,NW,305,26.0,33.0,74,0.01,,,-99.99,,2013-02-19 05:52:00,